Location: Tarleton Observatory
(32.2162°N, 98.0976°W)
Time: 23:40:51
(UTC-05:00)

Daily predictions for brighter satellites

Satellite Brightness Start Highest point End
(mag) Time Altitude Azimuth Time Altitude Azimuth Time Altitude Azimuth
CZ-4B DEB 3.4 20:52:02 10° S 20:55:20 62° W 20:58:39 10° NNW
Meteor 2-15 Rocket 4.4 20:49:48 10° S 20:55:50 78° E 21:01:54 10° N
Cosmos 1812 4.0 20:53:15 10° SSW 20:56:58 46° W 21:00:42 10° N
ATLAS CENTAUR R/B 2.4 20:54:02 10° SW 20:58:52 65° WNW 21:03:54 10° NNE
SL-24 R/B - RUBIN 2 4.1 20:55:13 10° SSW 21:00:20 83° ESE 21:06:13 10° NNE
Cosmos 2237 Rocket 2.9 20:56:47 10° SSW 21:02:19 61° WNW 21:07:54 10° NNE
ATLAS 3B CENTAUR R/B 3.8 21:00:20 10° SW 21:03:04 17° S 21:07:37 10° SSE
RESURS DK-1 3.8 20:59:32 10° NW 21:03:23 37° WSW 21:07:11 10° S
Resurs 01 Rocket 3.4 20:59:24 10° SSW 21:03:25 33° W 21:07:28 10° NNW
Chandra Rocket (1) 4.5 20:59:05 10° W 21:05:27 74° S 21:35:00 10° E
Atlas Centaur 2 3.3 21:00:41 10° SW 21:07:24 42° SSE 21:15:07 10° E
GEOS 3 Rocket 3.9 21:03:28 10° SE 21:08:37 56° NE 21:13:44 10° NNW
Tiangong 1 3.7 21:08:55 10° WSW 21:10:14 12° SW 21:11:33 10° SSW
Cosmos 1315 Rocket 4.4 21:07:11 10° NNW 21:10:59 38° W 21:14:44 10° SSW
Cosmos 2278 Rocket 2.2 21:09:13 10° NNW 21:14:54 75° ENE 21:20:33 10° SSE
Cosmos 1025 Rocket 3.0 21:12:07 10° S 21:16:30 86° E 21:20:54 10° N
Cosmos 494 Rocket 4.0 21:11:39 10° S 21:16:37 54° ESE 21:21:35 10° NNE
PSLV R/B 3.3 21:13:18 10° SW 21:16:46 61° SSE 21:20:17 10° ENE
CZ-2D R/B 3.3 21:13:47 10° S 21:17:40 83° W 21:21:35 10° NNW
Aureole 2 Rocket 3.5 21:14:38 10° SSE 21:18:18 31° ESE 21:21:42 10° NE
USA 186 1.4 21:16:07 10° SSE 21:19:07 83° ENE 21:21:57 10° N
COSMOS 2455 4.1 21:15:08 10° SSE 21:19:11 19° ESE 21:23:15 10° ENE
Cosmos 1892 Rocket 3.6 21:16:23 10° S 21:20:44 63° E 21:25:08 10° NNE
ISS -1.0 21:19:15 10° SSE 21:19:19 10° SSE 21:19:19 10° SSE
Cosmos 1939 Rocket 4.3 21:18:34 13° ESE 21:21:13 23° ENE 21:24:28 10° NNE
CZ-4 DEB 2.7 21:19:15 10° SSE 21:22:27 88° WSW 21:25:42 10° NNW
SPOT 5 4.2 21:26:57 14° ESE 21:29:09 20° ENE 21:32:17 10° NNE
SL-16 R/B 2.3 21:23:42 10° SSW 21:29:21 86° WNW 21:35:02 10° NNE
Lacrosse 5 rocket 3.9 21:30:01 10° W 21:33:08 23° NW 21:36:22 10° NNE
Cosmos 1666 4.0 21:30:04 10° NNE 21:33:19 24° ENE 21:34:49 19° ESE
Meteor 2-17 Rocket 4.4 21:27:26 10° N 21:33:36 83° E 21:39:45 10° S
Cosmos 1500 3.9 21:30:48 10° NNW 21:34:36 56° W 21:38:24 10° S
OTV 4 1.6 21:36:05 10° W 21:38:46 31° SSW 21:40:00 22° SSE
Cosmos 1331 Rocket 4.1 21:38:38 10° N 21:43:47 61° ENE 21:47:15 20° SSE
Meteor 1-23 Rocket 4.2 21:38:36 10° S 21:44:12 87° E 21:49:55 10° N
Cosmos 1743 2.8 21:41:07 10° N 21:44:57 77° W 21:48:15 13° S
Okean 2 3.4 21:45:20 10° S 21:49:30 83° W 21:53:42 10° N
Cosmos 1726 Rocket 3.7 21:45:57 10° N 21:50:24 78° W 21:54:12 14° S
ALOS 3.3 21:46:12 10° S 21:50:37 43° W 21:55:04 10° NNW
SeaSat 1 3.3 21:50:09 22° ESE 21:52:35 36° ENE 21:57:05 10° N
Cosmos 2285 Rocket 4.0 21:47:39 10° N 21:53:57 66° ENE 21:58:07 22° SSE
Cosmos 1603 3.7 21:52:40 10° S 21:58:10 60° ESE 22:03:41 10° NNE
CZ-4B R/B 3.9 21:56:37 10° NNE 22:01:26 42° E 22:03:35 28° SSE
Cosmos 2058 Rocket 3.1 21:57:13 10° N 22:01:35 77° W 22:04:29 21° S
UNK 4.3 21:58:21 10° NNE 22:03:45 58° ESE 22:08:12 16° S
Cosmos 1602 Rocket 3.5 22:01:25 23° S 22:04:08 68° E 22:08:36 10° NNE
APEX 4.1 22:01:29 10° N 22:05:40 50° ENE 22:07:37 33° ESE
Meteor 2-4 Rocket 4.4 22:00:44 10° SSW 22:06:25 57° W 22:12:14 10° N
Cosmos 1464 Rocket 3.9 22:00:39 10° N 22:06:48 90° W 22:11:28 19° S
CZ-2C R/B 2.8 22:06:25 17° SW 22:07:13 20° W 22:09:03 10° NW
Meteor 2-9 Rocket 4.2 22:02:26 10° N 22:08:10 84° E 22:11:49 24° S
PSLV R/B 3.3 22:09:29 53° ENE 22:09:29 53° ENE 22:12:26 10° N
Cosmos 1461 4.1 22:06:45 10° N 22:10:24 27° NE 22:11:08 26° ENE
Delta 168 3.8 22:07:03 10° SW 22:10:31 33° S 22:10:31 33° S
Cosmos 2297 4.1 22:12:01 10° NNW 22:17:39 61° WSW 22:21:01 24° S
Cosmos 1812 Rocket 3.9 22:15:21 10° N 22:19:33 44° E 22:19:55 43° E
ATLAS 3B R/B 3.4 22:16:52 28° SSE 22:19:52 38° ESE 22:26:45 10° NE
ERS-1 Rocket 4.0 22:16:56 14° SSW 22:20:54 42° W 22:25:39 10° NNW
Envisat 2.9 22:19:51 33° S 22:22:10 86° W 22:27:16 10° NNW
Cosmos 1943 3.6 22:23:34 38° ESE 22:23:50 38° ESE 22:29:01 10° NE
YAOGAN 6 3.4 22:24:55 38° ENE 22:24:55 38° ENE 22:28:02 10° N
Cosmos 2034 Rocket 4.0 22:18:23 10° N 22:24:46 87° W 22:28:23 28° S
H-2A R/B 3.4 22:25:28 19° SSW 22:27:55 35° W 22:31:50 10° NNW
OAO 3 Copernicus 4.3 22:22:53 10° WNW 22:27:57 78° NNE 22:29:35 43° E
Centaur D AC-29 4.1 22:22:31 10° W 22:31:51 17° WSW 22:35:57 10° SSW
USA 234 3.7 22:30:35 30° E 22:33:35 51° NE 22:39:53 10° NNW
Abrixas rocket 3.4 22:33:45 10° NW 22:36:37 39° NNE 22:36:37 39° NNE
USA 81 4.5 22:33:13 10° NNE 22:38:14 43° E 22:38:24 42° E
MetOp-A 4.0 22:37:42 48° SSE 22:39:15 89° ENE 22:44:38 10° NNW
CZ-4C R/B 4.5 22:51:16 37° NE 22:51:16 37° NE 22:54:25 10° N
Cosmos 1953 Rocket 4.5 22:55:36 38° NE 22:55:36 38° NE 22:58:37 10° NNE
Atlas Centaur 2 2.9 22:49:00 10° WSW 22:56:55 73° S 23:00:56 35° E
Meteor 2-12 Rocket 4.3 22:52:14 10° N 22:58:20 87° W 22:59:40 57° S
H-2A R/B 3.0 22:59:58 32° ENE 22:59:58 32° ENE 23:03:49 10° N
Cosmos 2346 Rocket 4.4 23:01:24 56° S 23:02:52 89° ESE 23:09:04 10° N
COSMOS 2455 3.5 22:58:48 10° SW 23:04:37 52° WNW 23:10:29 10° NNE
CZ-4 R/B 4.3 23:00:31 10° N 23:05:27 62° WNW 23:06:34 48° SW
Cosmos 1992 Rocket 4.2 23:01:04 10° N 23:05:55 58° NE 23:05:55 58° NE
SPOT 5 4.2 23:06:10 26° WSW 23:07:01 28° W 23:10:48 10° NW
SPOT 1/Viking Rocket 3.6 23:07:22 64° SW 23:07:48 67° WSW 23:12:56 10° NNW
Milstar 3 Cent rocket 3.7 23:04:57 10° W 23:08:18 21° SW 23:08:18 21° SW
ARGOS 3.0 23:10:54 78° SSW 23:11:11 82° WSW 23:16:38 10° NNW
Cosmos 2369 Rocket 2.7 23:07:56 10° N 23:13:08 45° ENE 23:13:08 45° ENE
Cosmos 1190 Rocket 4.0 23:17:40 77° WNW 23:17:40 77° WNW 23:22:58 10° NNE
Landsat 7 4.3 23:18:57 56° NNE 23:18:57 56° NNE 23:22:46 10° N
NOAA 11 4.1 23:19:15 76° WSW 23:19:18 76° WSW 23:24:44 10° NNW
Lacrosse 4 Rocket 3.5 23:31:19 21° NNE 23:31:19 21° NNE 23:32:44 10° NNE
SeaSat 1 4.2 23:29:57 23° WSW 23:30:07 23° WSW 23:33:58 10° NW
Meteor 1-22 Rocket 4.2 23:24:48 10° N 23:29:58 77° N 23:29:58 77° N
Terra 2.7 23:35:13 45° N 23:35:13 45° N 23:38:34 10° N
